Location: *
(52.2090°N, 4.1550°W)
Time: 20:15:47
(UTC+00:00)

TIMED - Pass Details

Date: 19 July 2019
Orbit: 602 x 605 km, 74.1° (Epoch: 24 August)

Event Time Altitude Azimuth Distance (km) Brightness Sun altitude
Rises 21:31:43 0° 202° (SSW) 2,843 7.7 -8.1°
Reaches altitude 10° 21:33:56 10° 201° (SSW) 1,945 6.8 -8.3°
Maximum altitude 21:38:17 85° 113° (ESE) 613 4.5 -8.7°
Drops below altitude 10° 21:42:40 10° 26° (NNE) 1,961 7.5 -9.1°
Sets 21:44:55 0° 26° (NNE) 2,870 8.4 -9.3°
